LNI364 WARR-WALL

Flight info

Callsign LNI364
Flight time 1h 35m
Altitude 31000
Route RAMPY T13 IKAPI T11 KAYAN
Aircraft MD88/M-SDFGIRWY/S

Departure

Time 2026-04-27 07:41
Airport Juanda International Airport (WARR)

Arrival

Time 2026-04-27 09:16
Airport Sultan Aji Muhammad Sulaiman Sepinggan International Airport (WALL)
Time Latitude Longitude Altitude Speed Heading
2026-04-27 07:23 -7.37514 112.78989 8 ft 0 kts
2026-04-27 07:30 -7.37522 112.78987 7 ft 2 kts 12°
2026-04-27 07:30 -7.37536 112.78984 7 ft 2 kts 11°
2026-04-27 07:30 -7.37551 112.78981 7 ft 2 kts
2026-04-27 07:31 -7.37566 112.78979 7 ft 1 kts 10°
2026-04-27 07:31 -7.37579 112.78978 7 ft 1 kts 353°
2026-04-27 07:31 -7.37591 112.78982 7 ft 1 kts 328°
2026-04-27 07:31 -7.37600 112.78990 7 ft 1 kts 305°
2026-04-27 07:32 -7.37606 112.79002 7 ft 1 kts 288°
2026-04-27 07:32 -7.37608 112.79015 7 ft 2 kts 277°
2026-04-27 07:32 -7.37611 112.79030 7 ft 2 kts 283°
2026-04-27 07:32 -7.37613 112.79037 7 ft 1 kts 282°
2026-04-27 07:33 -7.37613 112.79041 7 ft 0 kts 279°
2026-04-27 07:34 -7.37609 112.79012 7 ft 7 kts 279°
2026-04-27 07:34 -7.37601 112.78938 7 ft 9 kts 263°
2026-04-27 07:35 -7.37646 112.78906 8 ft 8 kts 174°
2026-04-27 07:35 -7.37711 112.78896 8 ft 11 kts 190°
2026-04-27 07:35 -7.37797 112.78879 10 ft 13 kts 203°
2026-04-27 07:35 -7.37825 112.78803 10 ft 13 kts 278°
2026-04-27 07:36 -7.37810 112.78696 10 ft 17 kts 278°
2026-04-27 07:36 -7.37789 112.78565 9 ft 20 kts 280°
2026-04-27 07:36 -7.37764 112.78421 9 ft 21 kts 279°
2026-04-27 07:36 -7.37741 112.78269 8 ft 22 kts 279°
2026-04-27 07:37 -7.37713 112.78106 8 ft 23 kts 279°
2026-04-27 07:37 -7.37687 112.77943 9 ft 23 kts 279°
2026-04-27 07:37 -7.37661 112.77782 10 ft 23 kts 279°
2026-04-27 07:37 -7.37634 112.77624 10 ft 23 kts 280°
2026-04-27 07:38 -7.37611 112.77480 11 ft 13 kts 275°
2026-04-27 07:38 -7.37633 112.77399 12 ft 12 kts 225°
2026-04-27 07:38 -7.37639 112.77395 11 ft 12 kts 218°
2026-04-27 07:38 -7.37684 112.77376 11 ft 8 kts 190°
2026-04-27 07:39 -7.37743 112.77367 10 ft 5 kts 185°
2026-04-27 07:39 -7.37768 112.77382 10 ft 3 kts 104°
2026-04-27 07:39 -7.37771 112.77396 10 ft 0 kts 103°
2026-04-27 07:39 -7.37774 112.77408 10 ft 13 kts 103°
2026-04-27 07:40 -7.37823 112.77685 9 ft 66 kts 98°
2026-04-27 07:40 -7.37925 112.78307 9 ft 111 kts 99°
2026-04-27 07:40 -7.38068 112.79198 9 ft 148 kts 100°
2026-04-27 07:40 -7.38259 112.80307 253 ft 161 kts 100°
2026-04-27 07:41 -7.38449 112.81394 768 ft 157 kts 92°
2026-04-27 07:41 -7.38559 112.82474 1184 ft 159 kts 103°
2026-04-27 07:41 -7.38774 112.83567 1613 ft 156 kts 88°
2026-04-27 07:41 -7.38859 112.84641 2039 ft 156 kts 101°
2026-04-27 07:42 -7.39044 112.85696 2428 ft 157 kts 98°
2026-04-27 07:42 -7.39243 112.86867 2565 ft 178 kts 98°
2026-04-27 07:42 -7.39459 112.88151 2759 ft 195 kts 98°
2026-04-27 07:42 -7.39694 112.89563 2953 ft 215 kts 98°
2026-04-27 07:43 -7.39965 112.91123 3208 ft 235 kts 96°
2026-04-27 07:43 -7.39794 112.92780 3534 ft 250 kts 70°
2026-04-27 07:43 -7.38937 112.94373 3897 ft 266 kts 49°
2026-04-27 07:43 -7.37740 112.95800 4470 ft 270 kts 53°
2026-04-27 07:44 -7.36581 112.97278 5220 ft 268 kts 52°
2026-04-27 07:44 -7.35424 112.98776 5737 ft 275 kts 53°
2026-04-27 07:44 -7.34262 113.00287 6418 ft 274 kts 53°
2026-04-27 07:44 -7.33092 113.01824 6990 ft 279 kts 54°
2026-04-27 07:45 -7.31921 113.03367 7604 ft 280 kts 54°
2026-04-27 07:45 -7.30744 113.04923 8147 ft 284 kts 55°
2026-04-27 07:45 -7.29547 113.06516 8715 ft 287 kts 55°
2026-04-27 07:45 -7.28334 113.08126 9337 ft 287 kts 56°
2026-04-27 07:46 -7.27131 113.09734 9879 ft 290 kts 52°
2026-04-27 07:46 -7.25556 113.11069 10165 ft 307 kts 33°
2026-04-27 07:46 -7.23486 113.11871 10225 ft 333 kts 13°
2026-04-27 07:46 -7.21261 113.12265 10388 ft 349 kts 14°
2026-04-27 07:47 -7.18834 113.12777 10877 ft 354 kts 14°
2026-04-27 07:47 -7.16395 113.13306 11469 ft 356 kts 15°
2026-04-27 07:47 -7.13954 113.13848 11958 ft 361 kts 15°
2026-04-27 07:47 -7.11507 113.14398 12478 ft 364 kts 15°
2026-04-27 07:48 -7.09009 113.14969 13015 ft 366 kts 15°
2026-04-27 07:48 -7.06514 113.15541 13537 ft 368 kts 15°
2026-04-27 07:48 -7.04016 113.16118 14053 ft 372 kts 15°
2026-04-27 07:48 -7.01482 113.16707 14554 ft 373 kts 15°
2026-04-27 07:49 -6.98937 113.17299 15047 ft 376 kts 14°
2026-04-27 07:49 -6.96369 113.17899 15517 ft 378 kts 14°
2026-04-27 07:49 -6.93794 113.18499 15961 ft 381 kts 14°
2026-04-27 07:49 -6.91194 113.19106 16442 ft 382 kts 15°
2026-04-27 07:50 -6.88594 113.19715 16863 ft 385 kts 14°
2026-04-27 07:50 -6.86002 113.20322 17311 ft 386 kts 14°
2026-04-27 07:50 -6.83382 113.20935 17730 ft 388 kts 14°
2026-04-27 07:50 -6.80743 113.21552 18108 ft 391 kts 14°
2026-04-27 07:51 -6.78082 113.22174 18451 ft 394 kts 14°
2026-04-27 07:51 -6.75368 113.22810 18853 ft 396 kts 14°
2026-04-27 07:51 -6.72696 113.23435 19230 ft 398 kts 14°
2026-04-27 07:51 -6.69996 113.24067 19581 ft 401 kts 15°
2026-04-27 07:52 -6.67234 113.24713 19971 ft 402 kts 15°
2026-04-27 07:52 -6.64517 113.25352 20292 ft 405 kts 15°
2026-04-27 07:52 -6.61780 113.25993 20672 ft 405 kts 15°
2026-04-27 07:52 -6.59050 113.26633 20817 ft 399 kts 15°
2026-04-27 07:53 -6.56333 113.27271 20809 ft 401 kts 15°
2026-04-27 07:53 -6.53598 113.27913 20820 ft 404 kts 15°
2026-04-27 07:53 -6.50856 113.28555 20818 ft 407 kts 15°
2026-04-27 07:53 -6.48070 113.29205 21079 ft 409 kts 15°
2026-04-27 07:54 -6.45313 113.29848 21507 ft 408 kts 15°
2026-04-27 07:54 -6.42522 113.30502 21726 ft 412 kts 15°
2026-04-27 07:54 -6.39724 113.31155 22087 ft 412 kts 15°
2026-04-27 07:54 -6.36913 113.31815 22383 ft 414 kts 15°
2026-04-27 07:55 -6.34106 113.32472 22697 ft 415 kts 15°
2026-04-27 07:55 -6.31292 113.33130 22995 ft 416 kts 15°
2026-04-27 07:55 -6.28458 113.33794 23279 ft 418 kts 15°
2026-04-27 07:55 -6.25622 113.34497 23559 ft 419 kts 18°
2026-04-27 07:56 -6.22843 113.35474 23822 ft 420 kts 24°
2026-04-27 07:56 -6.20219 113.36760 24101 ft 420 kts 28°
2026-04-27 07:56 -6.17612 113.38081 24402 ft 421 kts 28°
2026-04-27 07:56 -6.14988 113.39400 24632 ft 423 kts 28°
2026-04-27 07:57 -6.12345 113.40718 24973 ft 423 kts 28°
2026-04-27 07:57 -6.09708 113.42024 25122 ft 427 kts 27°
2026-04-27 07:57 -6.07017 113.43349 25460 ft 426 kts 27°
2026-04-27 07:57 -6.04366 113.44650 25672 ft 428 kts 27°
2026-04-27 07:58 -6.01661 113.45978 25888 ft 430 kts 27°
2026-04-27 07:58 -5.98971 113.47293 26146 ft 431 kts 27°
2026-04-27 07:58 -5.96266 113.48615 26377 ft 433 kts 27°
2026-04-27 07:58 -5.93550 113.49942 26552 ft 435 kts 27°
2026-04-27 07:59 -5.90840 113.51265 26791 ft 436 kts 27°
2026-04-27 07:59 -5.85365 113.53937 27224 ft 439 kts 27°
2026-04-27 07:59 -5.82594 113.55287 27435 ft 440 kts 27°
2026-04-27 08:00 -5.79836 113.56633 27569 ft 443 kts 27°
2026-04-27 08:00 -5.77072 113.57982 27824 ft 443 kts 27°
2026-04-27 08:00 -5.74282 113.59342 28003 ft 445 kts 27°
2026-04-27 08:00 -5.71465 113.60716 28158 ft 447 kts 27°
2026-04-27 08:01 -5.68669 113.62080 28332 ft 449 kts 27°
2026-04-27 08:01 -5.65821 113.63470 28449 ft 452 kts 27°
2026-04-27 08:01 -5.63021 113.64835 28685 ft 452 kts 27°
2026-04-27 08:01 -5.60181 113.66222 28797 ft 455 kts 27°
2026-04-27 08:02 -5.57324 113.67614 29049 ft 454 kts 27°
2026-04-27 08:02 -5.54497 113.68996 29248 ft 455 kts 27°
2026-04-27 08:02 -5.51624 113.70396 29466 ft 455 kts 27°
2026-04-27 08:02 -5.48783 113.71782 29740 ft 453 kts 27°
2026-04-27 08:03 -5.45960 113.73159 29926 ft 454 kts 27°
2026-04-27 08:03 -5.43097 113.74554 30172 ft 453 kts 27°
2026-04-27 08:03 -5.40279 113.75925 30379 ft 453 kts 27°
2026-04-27 08:03 -5.37399 113.77326 30566 ft 454 kts 27°
2026-04-27 08:04 -5.34563 113.78706 30817 ft 450 kts 27°
2026-04-27 08:04 -5.31750 113.80076 30801 ft 451 kts 27°
2026-04-27 08:04 -5.26157 113.82798 30820 ft 454 kts 27°
2026-04-27 08:05 -5.20469 113.85565 30812 ft 455 kts 27°
2026-04-27 08:05 -5.14747 113.88349 30807 ft 456 kts 27°
2026-04-27 08:06 -5.09068 113.91112 30804 ft 455 kts 27°
2026-04-27 08:06 -5.03357 113.93892 30802 ft 455 kts 27°
2026-04-27 08:07 -4.97673 113.96666 30801 ft 456 kts 28°
2026-04-27 08:07 -4.92200 113.99832 30794 ft 441 kts 34°
2026-04-27 08:08 -4.89704 114.01511 30788 ft 428 kts 35°
2026-04-27 08:08 -4.87246 114.03158 30787 ft 418 kts 35°
2026-04-27 08:08 -4.82404 114.06387 30801 ft 422 kts 34°
2026-04-27 08:09 -4.77440 114.09685 30804 ft 432 kts 34°
2026-04-27 08:09 -4.72425 114.13009 30799 ft 431 kts 35°
2026-04-27 08:10 -4.67450 114.16305 30799 ft 427 kts 34°
2026-04-27 08:10 -4.62504 114.19581 30801 ft 427 kts 34°
2026-04-27 08:11 -4.57523 114.22881 30799 ft 428 kts 34°
2026-04-27 08:11 -4.52536 114.26183 30799 ft 429 kts 35°
2026-04-27 08:12 -4.47588 114.29458 30799 ft 428 kts 35°
2026-04-27 08:12 -4.42586 114.32770 30801 ft 428 kts 35°
2026-04-27 08:13 -4.37613 114.36063 30801 ft 428 kts 34°
2026-04-27 08:13 -4.32657 114.39345 30799 ft 427 kts 34°
2026-04-27 08:14 -4.27698 114.42630 30800 ft 427 kts 35°
2026-04-27 08:14 -4.22754 114.45904 30799 ft 427 kts 35°
2026-04-27 08:15 -4.17768 114.49200 30800 ft 428 kts 35°
2026-04-27 08:15 -4.12784 114.52492 30801 ft 427 kts 34°
2026-04-27 08:16 -4.07854 114.55750 30797 ft 426 kts 35°
2026-04-27 08:16 -4.02902 114.59022 30788 ft 426 kts 34°
2026-04-27 08:17 -3.97940 114.62301 30789 ft 426 kts 35°
2026-04-27 08:17 -3.93004 114.65561 30789 ft 425 kts 34°
2026-04-27 08:18 -3.88059 114.68827 30792 ft 425 kts 34°
2026-04-27 08:18 -3.83104 114.72102 30795 ft 426 kts 34°
2026-04-27 08:19 -3.78143 114.75380 30797 ft 426 kts 34°
2026-04-27 08:19 -3.73156 114.78675 30399 ft 433 kts 35°
2026-04-27 08:20 -3.70641 114.80337 29989 ft 434 kts 34°
2026-04-27 08:20 -3.68228 114.81930 29583 ft 432 kts 34°
2026-04-27 08:20 -3.65760 114.83562 29172 ft 428 kts 34°
2026-04-27 08:20 -3.63272 114.85207 28760 ft 425 kts 34°
2026-04-27 08:21 -3.60801 114.86838 28490 ft 417 kts 34°
2026-04-27 08:21 -3.58422 114.88410 28618 ft 409 kts 34°
2026-04-27 08:21 -3.53564 114.91621 28622 ft 424 kts 34°
2026-04-27 08:22 -3.48622 114.94883 28609 ft 428 kts 34°
2026-04-27 08:22 -3.43634 114.98172 28605 ft 425 kts 34°
2026-04-27 08:23 -3.38695 115.01430 28607 ft 423 kts 34°
2026-04-27 08:23 -3.33794 115.04662 28605 ft 424 kts 34°
2026-04-27 08:24 -3.28829 115.07935 28605 ft 425 kts 34°
2026-04-27 08:24 -3.23907 115.11181 28606 ft 426 kts 35°
2026-04-27 08:25 -3.18943 115.14455 28598 ft 426 kts 35°
2026-04-27 08:25 -3.13978 115.17728 28594 ft 425 kts 35°
2026-04-27 08:26 -3.09039 115.20986 28597 ft 426 kts 35°
2026-04-27 08:26 -3.04081 115.24255 28596 ft 426 kts 35°
2026-04-27 08:27 -2.99128 115.27522 28600 ft 425 kts 35°
2026-04-27 08:27 -2.94183 115.30784 28604 ft 426 kts 35°
2026-04-27 08:28 -2.89223 115.34056 28607 ft 426 kts 35°
2026-04-27 08:28 -2.84278 115.37318 28616 ft 425 kts 35°
2026-04-27 08:29 -2.79346 115.40569 28622 ft 425 kts 35°
2026-04-27 08:29 -2.74408 115.43820 28633 ft 425 kts 35°
2026-04-27 08:30 -2.69452 115.47083 28636 ft 425 kts 36°
2026-04-27 08:30 -2.64507 115.50339 28626 ft 425 kts 35°
2026-04-27 08:31 -2.59574 115.53589 28619 ft 425 kts 35°
2026-04-27 08:31 -2.54633 115.56843 28615 ft 425 kts 36°
2026-04-27 08:32 -2.49675 115.60108 28622 ft 424 kts 36°
2026-04-27 08:32 -2.44736 115.63362 28635 ft 425 kts 36°
2026-04-27 08:33 -2.39783 115.66625 28643 ft 425 kts 36°
2026-04-27 08:33 -2.34843 115.69880 28643 ft 426 kts 35°
2026-04-27 08:34 -2.29883 115.73146 28644 ft 425 kts 35°
2026-04-27 08:34 -2.24966 115.76382 28639 ft 424 kts 36°
2026-04-27 08:35 -2.20456 115.80151 28636 ft 421 kts 48°
2026-04-27 08:35 -2.16366 115.84386 28625 ft 422 kts 47°
2026-04-27 08:36 -2.12294 115.88551 28615 ft 421 kts 47°
2026-04-27 08:36 -2.08176 115.92741 28615 ft 422 kts 47°
2026-04-27 08:37 -2.04037 115.96944 28606 ft 422 kts 47°
2026-04-27 08:37 -1.99912 116.01117 28596 ft 421 kts 47°
2026-04-27 08:38 -1.95823 116.05256 28600 ft 421 kts 47°
2026-04-27 08:38 -1.91701 116.09433 28602 ft 422 kts 47°
2026-04-27 08:39 -1.87583 116.13608 28595 ft 421 kts 47°
2026-04-27 08:39 -1.83470 116.17779 28582 ft 421 kts 47°
2026-04-27 08:40 -1.79359 116.21949 28575 ft 420 kts 47°
2026-04-27 08:40 -1.75358 116.26200 28575 ft 419 kts 53°
2026-04-27 08:41 -1.72265 116.31107 28575 ft 417 kts 65°
2026-04-27 08:41 -1.69867 116.36348 28573 ft 417 kts 66°
2026-04-27 08:42 -1.67433 116.41592 28577 ft 417 kts 66°
2026-04-27 08:42 -1.64977 116.46835 28574 ft 416 kts 66°
2026-04-27 08:43 -1.62520 116.52055 28573 ft 415 kts 66°
2026-04-27 08:43 -1.60051 116.57293 28571 ft 415 kts 66°
2026-04-27 08:44 -1.57591 116.62505 28572 ft 417 kts 66°
2026-04-27 08:44 -1.55092 116.67731 28570 ft 417 kts 60°
2026-04-27 08:45 -1.53288 116.69988 28598 ft 418 kts 45°
2026-04-27 08:45 -1.50923 116.71709 28583 ft 424 kts 29°
2026-04-27 08:45 -1.48135 116.72731 28598 ft 429 kts 14°
2026-04-27 08:45 -1.45130 116.72970 28599 ft 435 kts 359°
2026-04-27 08:46 -1.39112 116.72377 28575 ft 431 kts 10°
2026-04-27 08:46 -1.36258 116.73136 28606 ft 424 kts 27°
2026-04-27 08:46 -1.33788 116.74713 28610 ft 419 kts 45°
2026-04-27 08:47 -1.31933 116.76964 28605 ft 417 kts 61°
2026-04-27 08:47 -1.30745 116.79564 28606 ft 416 kts 70°
2026-04-27 08:47 -1.28678 116.84980 28587 ft 417 kts 70°
2026-04-27 08:48 -1.27333 116.90514 28600 ft 414 kts 92°
2026-04-27 08:48 -1.27884 116.93335 28610 ft 418 kts 110°
2026-04-27 08:48 -1.29319 116.95888 28611 ft 422 kts 127°
2026-04-27 08:49 -1.31479 116.97879 28610 ft 427 kts 144°
2026-04-27 08:49 -1.34172 116.99137 28610 ft 433 kts 161°
2026-04-27 08:49 -1.37176 116.99545 28605 ft 439 kts 179°
2026-04-27 08:49 -1.40235 116.99080 28301 ft 452 kts 195°
2026-04-27 08:50 -1.43148 116.97843 27781 ft 459 kts 208°
2026-04-27 08:50 -1.45753 116.95974 27231 ft 461 kts 221°
2026-04-27 08:50 -1.47958 116.93655 26685 ft 459 kts 229°
2026-04-27 08:50 -1.49749 116.91077 26117 ft 457 kts 242°
2026-04-27 08:51 -1.51233 116.88257 25565 ft 453 kts 241°
2026-04-27 08:51 -1.52725 116.85521 24996 ft 450 kts 240°
2026-04-27 08:51 -1.54246 116.82789 24417 ft 448 kts 240°
2026-04-27 08:51 -1.55760 116.80106 23859 ft 445 kts 240°
2026-04-27 08:52 -1.57292 116.77421 23289 ft 442 kts 240°
2026-04-27 08:52 -1.58801 116.74791 22746 ft 439 kts 239°
2026-04-27 08:52 -1.60313 116.72170 22192 ft 437 kts 239°
2026-04-27 08:52 -1.61841 116.69528 21652 ft 434 kts 239°
2026-04-27 08:53 -1.63334 116.66951 21114 ft 431 kts 239°
2026-04-27 08:53 -1.64828 116.64376 20582 ft 428 kts 239°
2026-04-27 08:53 -1.66315 116.61816 20043 ft 426 kts 240°
2026-04-27 08:53 -1.67802 116.59257 19507 ft 423 kts 240°
2026-04-27 08:54 -1.69272 116.56729 18968 ft 421 kts 240°
2026-04-27 08:54 -1.70733 116.54211 18434 ft 418 kts 240°
2026-04-27 08:54 -1.72183 116.51717 17904 ft 416 kts 240°
2026-04-27 08:54 -1.73631 116.49223 17366 ft 414 kts 240°
2026-04-27 08:55 -1.75065 116.46757 16845 ft 411 kts 240°
2026-04-27 08:55 -1.76504 116.44286 16310 ft 409 kts 240°
2026-04-27 08:55 -1.77923 116.41848 15778 ft 406 kts 240°
2026-04-27 08:55 -1.79334 116.39425 15266 ft 403 kts 240°
2026-04-27 08:56 -1.80734 116.37021 14734 ft 400 kts 240°
2026-04-27 08:56 -1.82140 116.34605 14192 ft 397 kts 240°
2026-04-27 08:56 -1.83525 116.32229 13657 ft 395 kts 240°
2026-04-27 08:56 -1.84878 116.29906 13139 ft 392 kts 240°
2026-04-27 08:57 -1.87607 116.25220 12068 ft 386 kts 240°
2026-04-27 08:57 -1.88944 116.22925 11538 ft 383 kts 240°
2026-04-27 08:57 -1.89848 116.21373 11178 ft 381 kts 240°
2026-04-27 08:58 -1.91174 116.19093 10655 ft 378 kts 240°
2026-04-27 08:58 -1.92477 116.16851 10136 ft 375 kts 240°
2026-04-27 08:58 -1.93700 116.14544 9815 ft 364 kts 249°
2026-04-27 08:58 -1.94236 116.12148 9702 ft 347 kts 269°
2026-04-27 08:59 -1.93909 116.09821 9571 ft 331 kts 291°
2026-04-27 08:59 -1.92788 116.07892 9334 ft 320 kts 314°
2026-04-27 08:59 -1.91024 116.06596 9087 ft 310 kts 338°
2026-04-27 08:59 -1.88970 116.06161 8859 ft 299 kts
2026-04-27 09:00 -1.86997 116.06650 8823 ft 283 kts 29°
2026-04-27 09:00 -1.85540 116.07861 8825 ft 267 kts 47°
2026-04-27 09:00 -1.84259 116.09203 8805 ft 263 kts 46°
2026-04-27 09:00 -1.82989 116.10532 8813 ft 267 kts 46°
2026-04-27 09:01 -1.81714 116.11900 8822 ft 274 kts 50°
2026-04-27 09:01 -1.80562 116.13435 8822 ft 276 kts 56°
2026-04-27 09:01 -1.79543 116.15067 8810 ft 276 kts 60°
2026-04-27 09:01 -1.78648 116.16748 8807 ft 274 kts 63°
2026-04-27 09:02 -1.77836 116.18495 8798 ft 274 kts 66°
2026-04-27 09:02 -1.77110 116.20252 8770 ft 276 kts 68°
2026-04-27 09:02 -1.76419 116.22090 8290 ft 289 kts 70°
2026-04-27 09:02 -1.75762 116.24001 7788 ft 294 kts 71°
2026-04-27 09:03 -1.75143 116.25937 7289 ft 299 kts 72°
2026-04-27 09:03 -1.74432 116.27901 6879 ft 297 kts 64°
2026-04-27 09:03 -1.73514 116.29672 6830 ft 283 kts 61°
2026-04-27 09:03 -1.72619 116.31382 6744 ft 270 kts 62°
2026-04-27 09:04 -1.71787 116.33002 6630 ft 259 kts 62°
2026-04-27 09:04 -1.70979 116.34603 6586 ft 258 kts 63°
2026-04-27 09:04 -1.70170 116.36224 6547 ft 264 kts 63°
2026-04-27 09:04 -1.69343 116.37903 6511 ft 268 kts 63°
2026-04-27 09:05 -1.68526 116.39574 6466 ft 269 kts 63°
2026-04-27 09:05 -1.67704 116.41270 6413 ft 269 kts 63°
2026-04-27 09:05 -1.66894 116.42947 6362 ft 268 kts 63°
2026-04-27 09:05 -1.66091 116.44618 6309 ft 267 kts 64°
2026-04-27 09:06 -1.65297 116.46279 6260 ft 267 kts 64°
2026-04-27 09:06 -1.64488 116.47975 6212 ft 266 kts 64°
2026-04-27 09:06 -1.63697 116.49633 6162 ft 267 kts 64°
2026-04-27 09:06 -1.62903 116.51305 6117 ft 266 kts 64°
2026-04-27 09:07 -1.62100 116.52994 6069 ft 267 kts 64°
2026-04-27 09:07 -1.61304 116.54674 6021 ft 267 kts 64°
2026-04-27 09:07 -1.60521 116.56327 5972 ft 266 kts 63°
2026-04-27 09:07 -1.59723 116.58012 5919 ft 265 kts 64°
2026-04-27 09:08 -1.58939 116.59669 5870 ft 265 kts 64°
2026-04-27 09:08 -1.58149 116.61339 5821 ft 265 kts 63°
2026-04-27 09:08 -1.57360 116.63007 5767 ft 265 kts 63°
2026-04-27 09:08 -1.56575 116.64668 5712 ft 264 kts 63°
2026-04-27 09:09 -1.55791 116.66325 5664 ft 264 kts 63°
2026-04-27 09:09 -1.54996 116.68007 5614 ft 264 kts 63°
2026-04-27 09:09 -1.54211 116.69666 5566 ft 264 kts 64°
2026-04-27 09:09 -1.53435 116.71328 5511 ft 263 kts 60°
2026-04-27 09:10 -1.52231 116.72663 5489 ft 259 kts 33°
2026-04-27 09:10 -1.50549 116.73373 5237 ft 266 kts
2026-04-27 09:10 -1.48707 116.73302 4958 ft 267 kts 349°
2026-04-27 09:10 -1.46878 116.72995 4652 ft 267 kts 352°
2026-04-27 09:11 -1.45021 116.72723 4314 ft 267 kts 352°
2026-04-27 09:11 -1.43186 116.72469 3991 ft 266 kts 353°
2026-04-27 09:11 -1.41324 116.72222 3600 ft 269 kts 353°
2026-04-27 09:11 -1.39439 116.71980 3089 ft 277 kts 353°
2026-04-27 09:12 -1.37546 116.71735 2540 ft 280 kts 356°
2026-04-27 09:12 -1.35629 116.71925 2069 ft 271 kts 22°
2026-04-27 09:12 -1.34129 116.72910 1974 ft 250 kts 47°
2026-04-27 09:12 -1.33205 116.74276 1967 ft 227 kts 68°
2026-04-27 09:13 -1.32572 116.75662 1949 ft 210 kts 65°
2026-04-27 09:13 -1.31976 116.76930 2005 ft 192 kts 64°
2026-04-27 09:13 -1.31426 116.78074 1967 ft 178 kts 64°
2026-04-27 09:13 -1.30916 116.79164 1950 ft 167 kts 71°
2026-04-27 09:14 -1.30502 116.80228 1864 ft 159 kts 68°
2026-04-27 09:14 -1.30091 116.81265 1670 ft 161 kts 68°
2026-04-27 09:14 -1.29675 116.82305 1491 ft 161 kts 68°
2026-04-27 09:14 -1.29278 116.83289 1287 ft 151 kts 68°
2026-04-27 09:15 -1.28908 116.84227 1056 ft 141 kts 71°
2026-04-27 09:15 -1.28635 116.85156 760 ft 138 kts 72°
2026-04-27 09:15 -1.28322 116.86053 481 ft 139 kts 69°
2026-04-27 09:15 -1.27933 116.86993 376 ft 149 kts 61°
2026-04-27 09:16 -1.27497 116.87925 182 ft 146 kts 64°
2026-04-27 09:16 -1.27099 116.88825 31 ft 133 kts 66°
2026-04-27 09:16 -1.26782 116.89578 24 ft 96 kts 67°
2026-04-27 09:16 -1.26610 116.89981 27 ft 42 kts 65°
2026-04-27 09:17 -1.26539 116.90114 26 ft 13 kts 29°
2026-04-27 09:17 -1.26463 116.90100 28 ft 10 kts 336°
2026-04-27 09:17 -1.26400 116.90076 30 ft 8 kts 338°
2026-04-27 09:17 -1.26348 116.90054 32 ft 7 kts 337°
2026-04-27 09:18 -1.26305 116.90052 33 ft 5 kts 14°
2026-04-27 09:18 -1.26269 116.90050 34 ft 4 kts 343°
2026-04-27 09:18 -1.26243 116.90041 35 ft 2 kts 337°